Location: Wolf Lake
(46.8518°N, 80.6381°W)
Time: 11:15:15
(UTC-04:00)

ISS - Pass Details

Date: 19 March 2026
Orbit: 416 x 425 km, 51.6° (Epoch: 19 April)

Event Time Altitude Azimuth Distance (km) Brightness Sun altitude
Rises 22:38:57 0° 295° (WNW) 2,386 1.2 -30.3°
Reaches altitude 10° 22:41:05 10° 298° (WNW) 1,517 -0.1 -30.6°
Enters shadow 22:41:37 14° 299° (WNW) 1,299 -0.5 -30.6°
